Year,Month,Day,Hour,Minute,Value (Times are PST for windgust in km/hr)
2022,11,05,00,00,16.10
2022,11,05,00,01,12.90
2022,11,05,00,02,19.30
2022,11,05,00,03,14.50
2022,11,05,00,04,9.60
2022,11,05,00,05,9.60
2022,11,05,00,06,11.30
2022,11,05,00,07,9.60
2022,11,05,00,08,9.60
2022,11,05,00,09,11.30
2022,11,05,00,10,11.30
2022,11,05,00,11,12.90
2022,11,05,00,12,12.90
2022,11,05,00,13,9.60
2022,11,05,00,14,9.60
2022,11,05,00,15,8.10
2022,11,05,00,16,11.30
2022,11,05,00,17,9.60
2022,11,05,00,18,6.40
2022,11,05,00,19,12.90
2022,11,05,00,20,12.90
2022,11,05,00,21,14.50
2022,11,05,00,22,14.50
2022,11,05,00,23,9.60
2022,11,05,00,24,11.30
2022,11,05,00,25,12.90
2022,11,05,00,26,9.60
2022,11,05,00,27,6.40
2022,11,05,00,28,9.60
2022,11,05,00,29,9.60
2022,11,05,00,30,9.60
2022,11,05,00,31,4.80
2022,11,05,00,32,6.40
2022,11,05,00,33,6.40
2022,11,05,00,34,9.60
2022,11,05,00,35,8.10
2022,11,05,00,36,8.10
2022,11,05,00,37,11.30
2022,11,05,00,38,8.10
2022,11,05,00,39,9.60
2022,11,05,00,40,8.10
2022,11,05,00,41,8.10
2022,11,05,00,42,8.10
2022,11,05,00,43,1.60
2022,11,05,00,44,6.40
2022,11,05,00,45,9.60
2022,11,05,00,46,11.30
2022,11,05,00,47,8.10
2022,11,05,00,48,9.60
2022,11,05,00,49,6.40
2022,11,05,00,50,11.30
2022,11,05,00,51,11.30
2022,11,05,00,52,9.60
2022,11,05,00,53,9.60
2022,11,05,00,54,9.60
2022,11,05,00,55,6.40
2022,11,05,00,56,12.90
2022,11,05,00,57,12.90
2022,11,05,00,58,11.30
2022,11,05,00,59,9.60
2022,11,05,01,00,6.40
2022,11,05,01,01,8.10
2022,11,05,01,02,8.10
2022,11,05,01,03,6.40
2022,11,05,01,04,8.10
2022,11,05,01,05,3.20
2022,11,05,01,06,6.40
2022,11,05,01,07,6.40
2022,11,05,01,08,3.20
2022,11,05,01,09,3.20
2022,11,05,01,10,6.40
2022,11,05,01,11,6.40
2022,11,05,01,12,3.20
2022,11,05,01,13,3.20
2022,11,05,01,14,3.20
2022,11,05,01,15,1.60
2022,11,05,01,16,1.60
2022,11,05,01,17,1.60
2022,11,05,01,21,3.20
2022,11,05,01,23,1.60
2022,11,05,01,26,1.60
2022,11,05,01,27,1.60
2022,11,05,01,28,1.60
2022,11,05,01,29,1.60
2022,11,05,01,31,1.60
2022,11,05,01,35,1.60
2022,11,05,01,36,1.60
2022,11,05,01,37,3.20
2022,11,05,01,38,1.60
2022,11,05,01,40,1.60
2022,11,05,01,41,1.60
2022,11,05,01,42,1.60
2022,11,05,01,46,1.60
2022,11,05,01,49,3.20
2022,11,05,01,50,6.40
2022,11,05,01,51,6.40
2022,11,05,01,52,1.60
2022,11,05,01,54,6.40
2022,11,05,01,55,6.40
2022,11,05,01,56,8.10
2022,11,05,01,57,6.40
2022,11,05,01,58,3.20
2022,11,05,01,59,3.20
2022,11,05,02,00,1.60
2022,11,05,02,03,1.60
2022,11,05,02,09,1.60
2022,11,05,02,14,1.60
2022,11,05,02,18,4.80
2022,11,05,02,19,3.20
2022,11,05,02,21,1.60
2022,11,05,02,23,4.80
2022,11,05,02,24,3.20
2022,11,05,02,26,3.20
2022,11,05,02,27,1.60
2022,11,05,02,30,1.60
2022,11,05,02,31,4.80
2022,11,05,02,32,4.80
2022,11,05,02,33,1.60
2022,11,05,02,34,6.40
2022,11,05,02,35,4.80
2022,11,05,02,36,1.60
2022,11,05,02,37,3.20
2022,11,05,02,38,3.20
2022,11,05,02,39,1.60
2022,11,05,02,41,1.60
2022,11,05,02,42,1.60
2022,11,05,02,43,3.20
2022,11,05,02,44,3.20
2022,11,05,02,45,3.20
2022,11,05,02,46,1.60
2022,11,05,02,48,1.60
2022,11,05,02,49,3.20
2022,11,05,02,50,3.20
2022,11,05,02,51,1.60
2022,11,05,02,52,1.60
2022,11,05,02,53,1.60
2022,11,05,02,54,1.60
2022,11,05,02,56,1.60
2022,11,05,03,01,1.60
2022,11,05,03,02,4.80
2022,11,05,03,03,3.20
2022,11,05,03,04,3.20
2022,11,05,03,05,3.20
2022,11,05,03,06,3.20
2022,11,05,03,09,1.60
2022,11,05,03,10,1.60
2022,11,05,03,11,1.60
2022,11,05,03,12,4.80
2022,11,05,03,13,3.20
2022,11,05,03,14,3.20
2022,11,05,03,15,3.20
2022,11,05,03,16,1.60
2022,11,05,03,17,1.60
2022,11,05,03,18,3.20
2022,11,05,03,19,3.20
2022,11,05,03,20,1.60
2022,11,05,03,21,1.60
2022,11,05,03,22,4.80
2022,11,05,03,23,3.20
2022,11,05,03,24,3.20
2022,11,05,03,25,3.20
2022,11,05,03,26,1.60
2022,11,05,03,27,3.20
2022,11,05,03,28,4.80
2022,11,05,03,29,6.40
2022,11,05,03,30,6.40
2022,11,05,03,31,4.80
2022,11,05,03,32,4.80
2022,11,05,03,33,6.40
2022,11,05,03,34,6.40
2022,11,05,03,35,4.80
2022,11,05,03,36,3.20
2022,11,05,03,37,6.40
2022,11,05,03,38,6.40
2022,11,05,03,39,6.40
2022,11,05,03,40,6.40
2022,11,05,03,41,4.80
2022,11,05,03,42,6.40
2022,11,05,03,43,4.80
2022,11,05,03,44,3.20
2022,11,05,03,45,4.80
2022,11,05,03,46,4.80
2022,11,05,03,47,1.60
2022,11,05,03,48,4.80
2022,11,05,03,49,3.20
2022,11,05,03,50,4.80
2022,11,05,03,51,4.80
2022,11,05,03,52,3.20
2022,11,05,03,53,4.80
2022,11,05,03,54,4.80
2022,11,05,03,55,3.20
2022,11,05,03,56,6.40
2022,11,05,03,57,6.40
2022,11,05,03,58,6.40
2022,11,05,03,59,6.40
2022,11,05,04,00,6.40
2022,11,05,04,01,8.10
2022,11,05,04,02,6.40
2022,11,05,04,03,4.80
2022,11,05,04,04,6.40
2022,11,05,04,05,6.40
2022,11,05,04,06,6.40
2022,11,05,04,07,6.40
2022,11,05,04,08,6.40
2022,11,05,04,09,4.80
2022,11,05,04,10,4.80
2022,11,05,04,11,4.80
2022,11,05,04,12,3.20
2022,11,05,04,13,4.80
2022,11,05,04,14,4.80
2022,11,05,04,15,6.40
2022,11,05,04,16,6.40
2022,11,05,04,17,4.80
2022,11,05,04,18,4.80
2022,11,05,04,19,6.40
2022,11,05,04,20,6.40
2022,11,05,04,21,4.80
2022,11,05,04,22,8.10
2022,11,05,04,23,9.60
2022,11,05,04,24,8.10
2022,11,05,04,25,8.10
2022,11,05,04,26,6.40
2022,11,05,04,27,6.40
2022,11,05,04,28,6.40
2022,11,05,04,29,4.80
2022,11,05,04,30,4.80
2022,11,05,04,31,4.80
2022,11,05,04,32,6.40
2022,11,05,04,33,6.40
2022,11,05,04,34,4.80
2022,11,05,04,35,3.20
2022,11,05,04,36,6.40
2022,11,05,04,37,4.80
2022,11,05,04,38,4.80
2022,11,05,04,39,6.40
2022,11,05,04,40,6.40
2022,11,05,04,41,6.40
2022,11,05,04,42,8.10
2022,11,05,04,43,8.10
2022,11,05,04,44,8.10
2022,11,05,04,45,6.40
2022,11,05,04,46,8.10
2022,11,05,04,47,8.10
2022,11,05,04,48,8.10
2022,11,05,04,49,8.10
2022,11,05,04,50,6.40
2022,11,05,04,51,8.10
2022,11,05,04,52,12.90
2022,11,05,04,53,8.10
2022,11,05,04,54,9.60
2022,11,05,04,55,6.40
2022,11,05,04,56,8.10
2022,11,05,04,57,6.40
2022,11,05,04,58,6.40
2022,11,05,04,59,9.60
2022,11,05,05,00,8.10
2022,11,05,05,01,8.10
2022,11,05,05,02,9.60
2022,11,05,05,03,12.90
2022,11,05,05,04,9.60
2022,11,05,05,05,9.60
2022,11,05,05,06,8.10
2022,11,05,05,07,6.40
2022,11,05,05,08,6.40
2022,11,05,05,09,6.40
2022,11,05,05,10,4.80
2022,11,05,05,11,4.80
2022,11,05,05,12,3.20
2022,11,05,05,13,3.20
2022,11,05,05,14,3.20
2022,11,05,05,15,3.20
2022,11,05,05,16,3.20
2022,11,05,05,17,4.80
2022,11,05,05,18,3.20
2022,11,05,05,19,3.20
2022,11,05,05,20,3.20
2022,11,05,05,21,3.20
2022,11,05,05,22,3.20
2022,11,05,05,23,6.40
2022,11,05,05,24,6.40
2022,11,05,05,25,6.40
2022,11,05,05,26,4.80
2022,11,05,05,27,6.40
2022,11,05,05,28,6.40
2022,11,05,05,29,9.60
2022,11,05,05,30,8.10
2022,11,05,05,31,8.10
2022,11,05,05,32,6.40
2022,11,05,05,33,8.10
2022,11,05,05,34,6.40
2022,11,05,05,35,8.10
2022,11,05,05,36,9.60
2022,11,05,05,37,9.60
2022,11,05,05,38,4.80
2022,11,05,05,39,6.40
2022,11,05,05,40,6.40
2022,11,05,05,41,6.40
2022,11,05,05,42,4.80
2022,11,05,05,43,6.40
2022,11,05,05,44,6.40
2022,11,05,05,45,3.20
2022,11,05,05,46,1.60
2022,11,05,05,48,1.60
2022,11,05,05,49,3.20
2022,11,05,05,50,3.20
2022,11,05,05,51,3.20
2022,11,05,05,52,3.20
2022,11,05,05,53,3.20
2022,11,05,05,54,3.20
2022,11,05,05,55,1.60
2022,11,05,06,03,3.20
2022,11,05,06,04,1.60
2022,11,05,06,05,1.60
2022,11,05,06,14,1.60
2022,11,05,06,25,1.60
2022,11,05,06,29,1.60
2022,11,05,06,30,1.60
2022,11,05,06,31,1.60
2022,11,05,06,34,1.60
2022,11,05,06,35,1.60
2022,11,05,06,36,3.20
2022,11,05,06,37,1.60
2022,11,05,06,47,4.80
2022,11,05,06,48,3.20
2022,11,05,06,49,1.60
2022,11,05,06,54,3.20
2022,11,05,06,55,3.20
2022,11,05,06,56,4.80
2022,11,05,06,57,8.10
2022,11,05,06,58,8.10
2022,11,05,06,59,6.40
2022,11,05,07,00,6.40
2022,11,05,07,01,3.20
2022,11,05,07,02,6.40
2022,11,05,07,03,3.20
2022,11,05,07,07,1.60
2022,11,05,07,08,1.60
2022,11,05,07,09,1.60
2022,11,05,07,43,3.20
2022,11,05,07,44,3.20
2022,11,05,07,45,3.20
2022,11,05,07,46,1.60
2022,11,05,07,47,3.20
2022,11,05,07,48,3.20
2022,11,05,07,49,1.60
2022,11,05,07,50,1.60
2022,11,05,07,55,4.80
2022,11,05,07,56,6.40
2022,11,05,07,57,4.80
2022,11,05,07,58,6.40
2022,11,05,07,59,6.40
2022,11,05,08,00,4.80
2022,11,05,08,01,9.60
2022,11,05,08,02,8.10
2022,11,05,08,03,8.10
2022,11,05,08,04,8.10
2022,11,05,08,05,6.40
2022,11,05,08,06,6.40
2022,11,05,08,07,6.40
2022,11,05,08,08,6.40
2022,11,05,08,09,6.40
2022,11,05,08,10,6.40
2022,11,05,08,11,6.40
2022,11,05,08,12,6.40
2022,11,05,08,13,6.40
2022,11,05,08,14,6.40
2022,11,05,08,15,8.10
2022,11,05,08,16,8.10
2022,11,05,08,17,8.10
2022,11,05,08,18,8.10
2022,11,05,08,19,8.10
2022,11,05,08,20,6.40
2022,11,05,08,21,6.40
2022,11,05,08,22,6.40
2022,11,05,08,23,4.80
2022,11,05,08,24,6.40
2022,11,05,08,25,4.80
2022,11,05,08,26,4.80
2022,11,05,08,27,4.80
2022,11,05,08,28,6.40
2022,11,05,08,29,4.80
2022,11,05,08,30,4.80
2022,11,05,08,31,4.80
2022,11,05,08,32,6.40
2022,11,05,08,33,4.80
2022,11,05,08,34,4.80
2022,11,05,08,35,6.40
2022,11,05,08,36,6.40
2022,11,05,08,37,6.40
2022,11,05,08,38,4.80
2022,11,05,08,39,4.80
2022,11,05,08,40,4.80
2022,11,05,08,41,4.80
2022,11,05,08,42,4.80
2022,11,05,08,43,6.40
2022,11,05,08,44,6.40
2022,11,05,08,45,4.80
2022,11,05,08,46,4.80
2022,11,05,08,47,6.40
2022,11,05,08,48,8.10
2022,11,05,08,49,8.10
2022,11,05,08,50,8.10
2022,11,05,08,51,14.50
2022,11,05,08,52,14.50
2022,11,05,08,53,17.70
2022,11,05,08,54,17.70
2022,11,05,08,55,12.90
2022,11,05,08,56,16.10
2022,11,05,08,57,19.30
2022,11,05,08,58,14.50
2022,11,05,08,59,11.30
2022,11,05,09,00,9.60
2022,11,05,09,01,14.50
2022,11,05,09,02,11.30
2022,11,05,09,03,9.60
2022,11,05,09,04,9.60
2022,11,05,09,05,8.10
2022,11,05,09,06,14.50
2022,11,05,09,07,12.90
2022,11,05,09,08,9.60
2022,11,05,09,09,8.10
2022,11,05,09,10,12.90
2022,11,05,09,11,9.60
2022,11,05,09,12,8.10
2022,11,05,09,13,8.10
2022,11,05,09,14,9.60
2022,11,05,09,15,9.60
2022,11,05,09,16,8.10
2022,11,05,09,17,8.10
2022,11,05,09,18,11.30
2022,11,05,09,19,9.60
2022,11,05,09,20,12.90
2022,11,05,09,21,14.50
2022,11,05,09,22,12.90
2022,11,05,09,23,8.10
2022,11,05,09,24,11.30
2022,11,05,09,25,9.60
2022,11,05,09,26,6.40
2022,11,05,09,27,9.60
2022,11,05,09,28,4.80
2022,11,05,09,29,4.80
2022,11,05,09,30,9.60
2022,11,05,09,31,12.90
2022,11,05,09,32,6.40
2022,11,05,09,33,6.40
2022,11,05,09,34,6.40
2022,11,05,09,35,8.10
2022,11,05,09,36,8.10
2022,11,05,09,37,12.90
2022,11,05,09,38,16.10
2022,11,05,09,39,9.60
2022,11,05,09,40,12.90
2022,11,05,09,41,8.10
2022,11,05,09,42,11.30
2022,11,05,09,43,6.40
2022,11,05,09,44,6.40
2022,11,05,09,45,6.40
2022,11,05,09,46,4.80
2022,11,05,09,47,8.10
2022,11,05,09,48,6.40
2022,11,05,09,49,6.40
2022,11,05,09,50,12.90
2022,11,05,09,51,8.10
2022,11,05,09,52,6.40
2022,11,05,09,53,6.40
2022,11,05,09,54,8.10
2022,11,05,09,55,8.10
2022,11,05,09,56,8.10
2022,11,05,09,57,8.10
2022,11,05,09,58,4.80
2022,11,05,09,59,6.40
2022,11,05,10,00,11.30
2022,11,05,10,01,6.40
2022,11,05,10,02,8.10
2022,11,05,10,03,8.10
2022,11,05,10,04,6.40
2022,11,05,10,05,8.10
2022,11,05,10,06,9.60
2022,11,05,10,07,16.10
2022,11,05,10,08,8.10
2022,11,05,10,09,6.40
2022,11,05,10,10,9.60
2022,11,05,10,11,6.40
2022,11,05,10,12,6.40
2022,11,05,10,13,6.40
2022,11,05,10,14,9.60
2022,11,05,10,15,9.60
2022,11,05,10,16,9.60
2022,11,05,10,17,6.40
2022,11,05,10,18,4.80
2022,11,05,10,19,1.60
2022,11,05,10,20,8.10
2022,11,05,10,21,12.90
2022,11,05,10,22,16.10
2022,11,05,10,23,4.80
2022,11,05,10,24,4.80
2022,11,05,10,25,6.40
2022,11,05,10,26,1.60
2022,11,05,10,27,3.20
2022,11,05,10,28,4.80
2022,11,05,10,29,4.80
2022,11,05,10,30,4.80
2022,11,05,10,31,4.80
2022,11,05,10,32,8.10
2022,11,05,10,33,6.40
2022,11,05,10,34,3.20
2022,11,05,10,35,4.80
2022,11,05,10,36,4.80
2022,11,05,10,37,4.80
2022,11,05,10,38,4.80
2022,11,05,10,39,4.80
2022,11,05,10,40,4.80
2022,11,05,10,41,6.40
2022,11,05,10,42,8.10
2022,11,05,10,43,8.10
2022,11,05,10,44,6.40
2022,11,05,10,45,6.40
2022,11,05,10,46,4.80
2022,11,05,10,47,1.60
2022,11,05,10,48,1.60
2022,11,05,10,49,1.60
2022,11,05,10,50,6.40
2022,11,05,10,51,3.20
2022,11,05,10,52,3.20
2022,11,05,10,53,3.20
2022,11,05,10,54,1.60
2022,11,05,10,55,4.80
2022,11,05,10,56,11.30
2022,11,05,10,57,6.40
2022,11,05,10,58,8.10
2022,11,05,10,59,9.60
2022,11,05,11,00,6.40
2022,11,05,11,01,8.10
2022,11,05,11,02,8.10
2022,11,05,11,03,8.10
2022,11,05,11,04,9.60
2022,11,05,11,05,8.10
2022,11,05,11,06,8.10
2022,11,05,11,07,8.10
2022,11,05,11,08,8.10
2022,11,05,11,09,4.80
2022,11,05,11,10,4.80
2022,11,05,11,11,3.20
2022,11,05,11,12,3.20
2022,11,05,11,13,6.40
2022,11,05,11,14,8.10
2022,11,05,11,15,8.10
2022,11,05,11,16,4.80
2022,11,05,11,17,11.30
2022,11,05,11,18,11.30
2022,11,05,11,19,6.40
2022,11,05,11,20,4.80
2022,11,05,11,21,11.30
2022,11,05,11,22,11.30
2022,11,05,11,23,8.10
2022,11,05,11,24,6.40
2022,11,05,11,25,4.80
2022,11,05,11,26,6.40
2022,11,05,11,27,8.10
2022,11,05,11,28,8.10
2022,11,05,11,29,8.10
2022,11,05,11,30,4.80
2022,11,05,11,31,6.40
2022,11,05,11,32,4.80
2022,11,05,11,33,3.20
2022,11,05,11,34,3.20
2022,11,05,11,35,4.80
2022,11,05,11,36,4.80
2022,11,05,11,37,4.80
2022,11,05,11,38,3.20
2022,11,05,11,39,1.60
2022,11,05,11,40,3.20
2022,11,05,11,41,1.60
2022,11,05,11,42,1.60
2022,11,05,11,43,1.60
2022,11,05,11,44,1.60
2022,11,05,11,45,3.20
2022,11,05,11,46,3.20
2022,11,05,11,47,1.60
2022,11,05,11,48,3.20
2022,11,05,11,49,3.20
2022,11,05,11,50,3.20
2022,11,05,11,51,4.80
2022,11,05,11,53,4.80
2022,11,05,11,54,8.10
2022,11,05,11,55,6.40
2022,11,05,11,56,9.60
2022,11,05,11,57,12.90
2022,11,05,11,58,9.60
2022,11,05,11,59,8.10
2022,11,05,12,00,6.40
2022,11,05,12,01,6.40
2022,11,05,12,02,11.30
2022,11,05,12,03,11.30
2022,11,05,12,04,6.40
2022,11,05,12,05,3.20
2022,11,05,12,06,4.80
2022,11,05,12,07,17.70
2022,11,05,12,08,9.60
2022,11,05,12,09,8.10
2022,11,05,12,10,9.60
2022,11,05,12,11,4.80
2022,11,05,12,12,4.80
2022,11,05,12,13,9.60
2022,11,05,12,14,8.10
2022,11,05,12,15,8.10
2022,11,05,12,16,11.30
2022,11,05,12,17,11.30
2022,11,05,12,18,8.10
2022,11,05,12,19,11.30
2022,11,05,12,20,11.30
2022,11,05,12,21,9.60
2022,11,05,12,22,8.10
2022,11,05,12,23,8.10
2022,11,05,12,24,9.60
2022,11,05,12,25,8.10
2022,11,05,12,26,9.60
2022,11,05,12,27,11.30
2022,11,05,12,28,4.80
2022,11,05,12,29,8.10
2022,11,05,12,30,8.10
2022,11,05,12,31,8.10
2022,11,05,12,32,8.10
2022,11,05,12,33,6.40
2022,11,05,12,34,6.40
2022,11,05,12,35,4.80
2022,11,05,12,36,1.60
2022,11,05,12,37,1.60
2022,11,05,12,38,3.20
2022,11,05,12,39,6.40
2022,11,05,12,40,6.40
2022,11,05,12,41,3.20
2022,11,05,12,42,4.80
2022,11,05,12,43,4.80
2022,11,05,12,44,3.20
2022,11,05,12,45,4.80
2022,11,05,12,46,3.20
2022,11,05,12,47,4.80
2022,11,05,12,48,8.10
2022,11,05,12,49,9.60
2022,11,05,12,50,3.20
2022,11,05,12,51,3.20
2022,11,05,12,52,1.60
2022,11,05,12,53,4.80
2022,11,05,12,54,3.20
2022,11,05,12,55,1.60
2022,11,05,12,56,3.20
2022,11,05,12,57,6.40
2022,11,05,12,58,9.60
2022,11,05,12,59,9.60
2022,11,05,13,00,8.10
2022,11,05,13,01,11.30
2022,11,05,13,02,8.10
2022,11,05,13,03,8.10
2022,11,05,13,04,8.10
2022,11,05,13,05,1.60
2022,11,05,13,06,6.40
2022,11,05,13,07,6.40
2022,11,05,13,08,3.20
2022,11,05,13,09,8.10
2022,11,05,13,10,6.40
2022,11,05,13,11,6.40
2022,11,05,13,12,8.10
2022,11,05,13,13,6.40
2022,11,05,13,14,1.60
2022,11,05,13,15,8.10
2022,11,05,13,16,8.10
2022,11,05,13,17,8.10
2022,11,05,13,18,6.40
2022,11,05,13,19,8.10
2022,11,05,13,20,6.40
2022,11,05,13,21,8.10
2022,11,05,13,22,6.40
2022,11,05,13,23,6.40
2022,11,05,13,24,4.80
2022,11,05,13,25,3.20
2022,11,05,13,26,1.60
2022,11,05,13,27,4.80
2022,11,05,13,28,1.60
2022,11,05,13,29,1.60
2022,11,05,13,31,1.60
2022,11,05,13,42,3.20
2022,11,05,13,43,4.80
2022,11,05,13,44,4.80
2022,11,05,13,45,3.20
2022,11,05,13,46,4.80
2022,11,05,13,47,4.80
2022,11,05,13,48,4.80
2022,11,05,13,49,6.40
2022,11,05,13,50,6.40
2022,11,05,13,51,4.80
2022,11,05,13,52,3.20
2022,11,05,13,53,6.40
2022,11,05,13,54,6.40
2022,11,05,13,55,6.40
2022,11,05,13,56,6.40
2022,11,05,13,57,4.80
2022,11,05,13,58,9.60
2022,11,05,13,59,6.40
2022,11,05,14,00,4.80
2022,11,05,14,01,4.80
2022,11,05,14,02,8.10
2022,11,05,14,03,11.30
2022,11,05,14,04,11.30
2022,11,05,14,05,8.10
2022,11,05,14,06,8.10
2022,11,05,14,07,9.60
2022,11,05,14,08,6.40
2022,11,05,14,09,9.60
2022,11,05,14,10,9.60
2022,11,05,14,11,8.10
2022,11,05,14,12,8.10
2022,11,05,14,13,8.10
2022,11,05,14,14,9.60
2022,11,05,14,15,8.10
2022,11,05,14,16,9.60
2022,11,05,14,17,6.40
2022,11,05,14,18,8.10
2022,11,05,14,19,6.40
2022,11,05,14,20,6.40
2022,11,05,14,21,3.20
2022,11,05,14,22,1.60
2022,11,05,14,23,3.20
2022,11,05,14,24,4.80
2022,11,05,14,25,3.20
2022,11,05,14,26,4.80
2022,11,05,14,27,6.40
2022,11,05,14,28,6.40
2022,11,05,14,29,6.40
2022,11,05,14,30,3.20
2022,11,05,14,31,3.20
2022,11,05,14,32,3.20
2022,11,05,14,33,8.10
2022,11,05,14,34,4.80
2022,11,05,14,35,3.20
2022,11,05,14,36,4.80
2022,11,05,14,37,3.20
2022,11,05,14,38,1.60
2022,11,05,14,39,1.60
2022,11,05,14,40,1.60
2022,11,05,14,48,1.60
2022,11,05,14,49,1.60
2022,11,05,14,51,3.20
2022,11,05,14,53,1.60
2022,11,05,14,56,1.60
2022,11,05,14,57,1.60
2022,11,05,14,58,3.20
2022,11,05,14,59,3.20
2022,11,05,15,00,1.60
2022,11,05,15,07,3.20
2022,11,05,15,08,4.80
2022,11,05,15,09,4.80
2022,11,05,15,10,4.80
2022,11,05,15,11,4.80
2022,11,05,15,12,4.80
2022,11,05,15,13,6.40
2022,11,05,15,14,6.40
2022,11,05,15,15,8.10
2022,11,05,15,16,6.40
2022,11,05,15,17,9.60
2022,11,05,15,18,6.40
2022,11,05,15,19,3.20
2022,11,05,15,20,3.20
2022,11,05,15,21,3.20
2022,11,05,15,22,6.40
2022,11,05,15,23,6.40
2022,11,05,15,24,1.60
2022,11,05,15,25,6.40
2022,11,05,15,26,4.80
2022,11,05,15,27,3.20
2022,11,05,15,28,1.60
2022,11,05,15,29,1.60
2022,11,05,15,30,4.80
2022,11,05,15,31,3.20
2022,11,05,15,32,1.60
2022,11,05,15,33,3.20
2022,11,05,15,34,4.80
2022,11,05,15,35,4.80
2022,11,05,15,36,4.80
2022,11,05,15,37,3.20
2022,11,05,15,38,1.60
2022,11,05,15,39,3.20
2022,11,05,15,44,1.60
2022,11,05,15,45,3.20
2022,11,05,15,46,1.60
2022,11,05,15,47,1.60
2022,11,05,15,48,1.60
2022,11,05,15,50,1.60
2022,11,05,15,54,1.60
2022,11,05,16,08,1.60
2022,11,05,16,09,1.60
2022,11,05,16,12,1.60
2022,11,05,16,13,1.60
2022,11,05,16,14,1.60
2022,11,05,16,15,3.20
2022,11,05,16,16,4.80
2022,11,05,16,17,3.20
2022,11,05,16,18,3.20
2022,11,05,16,19,1.60
2022,11,05,16,20,1.60
2022,11,05,16,21,1.60
2022,11,05,16,24,1.60
2022,11,05,16,25,1.60
2022,11,05,16,48,3.20
2022,11,05,16,49,3.20
2022,11,05,16,50,1.60
2022,11,05,16,51,3.20
2022,11,05,16,52,3.20
2022,11,05,16,53,4.80
2022,11,05,16,54,4.80
2022,11,05,16,55,4.80
2022,11,05,16,56,1.60
2022,11,05,16,57,1.60
2022,11,05,16,58,3.20
2022,11,05,16,59,3.20
2022,11,05,17,00,3.20
2022,11,05,17,01,4.80
2022,11,05,17,02,3.20
2022,11,05,17,03,3.20
2022,11,05,17,04,3.20
2022,11,05,17,05,1.60
2022,11,05,17,06,1.60
2022,11,05,17,09,1.60
2022,11,05,17,12,4.80
2022,11,05,17,13,4.80
2022,11,05,17,14,3.20
2022,11,05,17,15,3.20
2022,11,05,17,16,1.60
2022,11,05,17,17,1.60
2022,11,05,17,18,1.60
2022,11,05,17,20,1.60
2022,11,05,17,21,4.80
2022,11,05,17,22,1.60
2022,11,05,17,23,3.20
2022,11,05,17,24,1.60
2022,11,05,17,25,3.20
2022,11,05,17,26,1.60
2022,11,05,17,27,1.60
2022,11,05,17,28,3.20
2022,11,05,17,29,3.20
2022,11,05,17,30,3.20
2022,11,05,17,31,3.20
2022,11,05,17,32,3.20
2022,11,05,17,33,3.20
2022,11,05,17,34,3.20
2022,11,05,17,35,3.20
2022,11,05,17,36,4.80
2022,11,05,17,37,4.80
2022,11,05,17,38,3.20
2022,11,05,17,39,3.20
2022,11,05,17,40,6.40
2022,11,05,17,41,6.40
2022,11,05,17,42,4.80
2022,11,05,17,43,3.20
2022,11,05,17,44,3.20
2022,11,05,17,45,3.20
2022,11,05,17,46,6.40
2022,11,05,17,47,4.80
2022,11,05,17,48,3.20
2022,11,05,17,49,3.20
2022,11,05,17,50,3.20
2022,11,05,17,51,1.60
2022,11,05,17,52,3.20
2022,11,05,17,53,4.80
2022,11,05,17,54,4.80
2022,11,05,17,55,3.20
2022,11,05,17,56,3.20
2022,11,05,17,57,3.20
2022,11,05,17,58,4.80
2022,11,05,17,59,4.80
2022,11,05,18,00,4.80
2022,11,05,18,01,4.80
2022,11,05,18,02,4.80
2022,11,05,18,03,4.80
2022,11,05,18,04,6.40
2022,11,05,18,05,8.10
2022,11,05,18,06,6.40
2022,11,05,18,07,6.40
2022,11,05,18,08,8.10
2022,11,05,18,09,6.40
2022,11,05,18,10,6.40
2022,11,05,18,11,6.40
2022,11,05,18,12,6.40
2022,11,05,18,13,9.60
2022,11,05,18,14,6.40
2022,11,05,18,15,4.80
2022,11,05,18,16,6.40
2022,11,05,18,17,6.40
2022,11,05,18,18,1.60
2022,11,05,18,21,3.20
2022,11,05,18,22,1.60
2022,11,05,18,24,1.60
2022,11,05,18,26,1.60
2022,11,05,18,27,3.20
2022,11,05,18,28,1.60
2022,11,05,18,29,1.60
2022,11,05,18,30,1.60
2022,11,05,18,31,3.20
2022,11,05,18,32,3.20
2022,11,05,18,33,3.20
2022,11,05,18,34,4.80
2022,11,05,18,35,3.20
2022,11,05,18,36,3.20
2022,11,05,18,37,6.40
2022,11,05,18,38,6.40
2022,11,05,18,39,6.40
2022,11,05,18,40,6.40
2022,11,05,18,41,6.40
2022,11,05,18,42,3.20
2022,11,05,18,43,6.40
2022,11,05,18,44,6.40
2022,11,05,18,45,6.40
2022,11,05,18,46,4.80
2022,11,05,18,47,4.80
2022,11,05,18,48,6.40
2022,11,05,18,49,4.80
2022,11,05,18,50,1.60
2022,11,05,18,55,1.60
2022,11,05,18,56,3.20
2022,11,05,18,57,1.60
2022,11,05,18,58,1.60
2022,11,05,19,06,1.60
2022,11,05,19,07,3.20
2022,11,05,19,08,3.20
2022,11,05,19,09,4.80
2022,11,05,19,10,4.80
2022,11,05,19,11,4.80
2022,11,05,19,12,4.80
2022,11,05,19,13,4.80
2022,11,05,19,14,3.20
2022,11,05,19,15,1.60
2022,11,05,19,16,3.20
2022,11,05,19,17,3.20
2022,11,05,19,18,4.80
2022,11,05,19,19,3.20
2022,11,05,19,20,4.80
2022,11,05,19,21,3.20
2022,11,05,19,22,4.80
2022,11,05,19,23,3.20
2022,11,05,19,24,1.60
2022,11,05,19,25,3.20
2022,11,05,19,26,1.60
2022,11,05,19,27,3.20
2022,11,05,19,28,3.20
2022,11,05,19,29,1.60
2022,11,05,19,31,1.60
2022,11,05,19,32,4.80
2022,11,05,19,33,6.40
2022,11,05,19,34,6.40
2022,11,05,19,35,4.80
2022,11,05,19,36,6.40
2022,11,05,19,37,4.80
2022,11,05,19,38,4.80
2022,11,05,19,39,4.80
2022,11,05,19,40,4.80
2022,11,05,19,41,3.20
2022,11,05,19,42,3.20
2022,11,05,19,43,3.20
2022,11,05,19,44,4.80
2022,11,05,19,45,4.80
2022,11,05,19,46,3.20
2022,11,05,19,47,3.20
2022,11,05,19,48,4.80
2022,11,05,19,49,3.20
2022,11,05,19,50,3.20
2022,11,05,19,51,4.80
2022,11,05,19,52,4.80
2022,11,05,19,53,1.60
2022,11,05,19,57,1.60
2022,11,05,19,58,4.80
2022,11,05,19,59,3.20
2022,11,05,20,00,1.60
2022,11,05,20,01,1.60
2022,11,05,20,04,1.60
2022,11,05,20,05,1.60
2022,11,05,20,06,1.60
2022,11,05,20,07,1.60
2022,11,05,20,11,1.60
2022,11,05,20,14,1.60
2022,11,05,20,16,1.60
2022,11,05,20,17,1.60
2022,11,05,20,18,3.20
2022,11,05,20,19,4.80
2022,11,05,20,20,4.80
2022,11,05,20,21,6.40
2022,11,05,20,22,6.40
2022,11,05,20,23,6.40
2022,11,05,20,24,6.40
2022,11,05,20,25,4.80
2022,11,05,20,26,4.80
2022,11,05,20,27,3.20
2022,11,05,20,28,3.20
2022,11,05,20,31,1.60
2022,11,05,20,32,1.60
2022,11,05,20,33,1.60
2022,11,05,20,34,1.60
2022,11,05,20,35,1.60
2022,11,05,20,36,3.20
2022,11,05,20,37,3.20
2022,11,05,20,39,1.60
2022,11,05,20,40,3.20
2022,11,05,20,41,3.20
2022,11,05,20,42,3.20
2022,11,05,20,43,4.80
2022,11,05,20,45,1.60
2022,11,05,20,46,1.60
2022,11,05,20,52,1.60
2022,11,05,20,55,1.60
2022,11,05,20,57,1.60
2022,11,05,20,59,4.80
2022,11,05,21,00,4.80
2022,11,05,21,01,3.20
2022,11,05,21,02,3.20
2022,11,05,21,03,3.20
2022,11,05,21,04,1.60
2022,11,05,21,05,1.60
2022,11,05,21,06,3.20
2022,11,05,21,07,3.20
2022,11,05,21,08,3.20
2022,11,05,21,09,3.20
2022,11,05,21,10,1.60
2022,11,05,21,11,1.60
2022,11,05,21,15,1.60
2022,11,05,21,16,3.20
2022,11,05,21,17,1.60
2022,11,05,21,19,1.60
2022,11,05,21,20,3.20
2022,11,05,21,21,1.60
2022,11,05,21,22,1.60
2022,11,05,21,27,1.60
2022,11,05,21,28,1.60
2022,11,05,21,29,1.60
2022,11,05,21,30,1.60
2022,11,05,21,31,1.60
2022,11,05,21,32,1.60
2022,11,05,21,33,1.60
2022,11,05,21,34,1.60
2022,11,05,21,35,1.60
2022,11,05,21,47,3.20
2022,11,05,21,48,3.20
2022,11,05,21,49,4.80
2022,11,05,21,50,4.80
2022,11,05,21,51,4.80
2022,11,05,21,52,4.80
2022,11,05,21,53,6.40
2022,11,05,21,54,8.10
2022,11,05,21,55,6.40
2022,11,05,21,56,6.40
2022,11,05,21,57,3.20
2022,11,05,21,58,3.20
2022,11,05,21,59,1.60
2022,11,05,22,00,6.40
2022,11,05,22,01,6.40
2022,11,05,22,02,8.10
2022,11,05,22,03,9.60
2022,11,05,22,04,9.60
2022,11,05,22,05,11.30
2022,11,05,22,06,11.30
2022,11,05,22,07,9.60
2022,11,05,22,08,8.10
2022,11,05,22,09,8.10
2022,11,05,22,10,6.40
2022,11,05,22,11,8.10
2022,11,05,22,12,4.80
2022,11,05,22,13,4.80
2022,11,05,22,14,4.80
2022,11,05,22,15,8.10
2022,11,05,22,16,8.10
2022,11,05,22,17,6.40
2022,11,05,22,18,9.60
2022,11,05,22,19,8.10
2022,11,05,22,20,9.60
2022,11,05,22,21,11.30
2022,11,05,22,22,11.30
2022,11,05,22,23,11.30
2022,11,05,22,24,11.30
2022,11,05,22,25,9.60
2022,11,05,22,26,9.60
2022,11,05,22,27,6.40
2022,11,05,22,28,6.40
2022,11,05,22,29,9.60
2022,11,05,22,30,16.10
2022,11,05,22,31,12.90
2022,11,05,22,32,11.30